Regional Weather Roundup
Issued by NWS

Home | Current Version | Previous Version | Text Only | Print | Product List | Glossary On
Versions: 1 2 3 4 5 6 7 8 9 10 11 12 13 14 15 16 17 18 19 20 21 22 23 24 25 26 27 28 29 30 31 32 33 34 35 36 37 38 39 40 41 42 43 44 45 46 47 48 49 50
784
ASUS44 KJAN 220703
RWRMS

MISSISSIPPI HOURLY WEATHER ROUNDUP
NATIONAL WEATHER SERVICE JACKSON MS
100 AM CST SAT NOV 22 2014

NOTE: "FAIR: INDICATES FEW OR NO CLOUDS BELOW 12,000 FEET WITH NO
SIGNIFICANT WEATHER AND/OR OBSTRUCTIONS TO VISIBILITY.

MSZ001>002-007>008-010>013-018>021-025>028-034>036-220800-
NORTHWEST MISSISSIPPI

CITY           SKY/WX    TMP DP  RH WIND       PRES   REMARKS
CLARKSDALE     MOCLDY    54  48  82 SE5       30.29R
CLEVELAND      CLOUDY    56  49  77 S6        30.28S
GREENWOOD      MOCLDY    56  45  66 SE9       30.29R
GREENVILLE     CLOUDY    56  47  71 S6        30.27R
GRENADA        CLOUDY    50  46  87 CALM      30.31R
OLIVE BRANCH   CLOUDY    54  52  94 SE7       30.28F
OXFORD         CLOUDY    54  45  71 SE7       30.31S
TUNICA         MOSUNNY   52  46  82 SE7       30.29R
$$

MSZ003>006-009-014>017-022>024-029>033-037>039-220800-
NORTHEAST MISSISSIPPI

CITY           SKY/WX    TMP DP  RH WIND       PRES   REMARKS
COLUMBUS AFB   NOT AVBL
CORINTH        CLOUDY    50  41  71 SE3       30.31F
GOLDN TRIANGLE CLEAR     50  43  76 S6        30.31S
STARKVILLE       N/A     45  43  93 CALM      30.31F
TUPELO         CLOUDY    53  42  66 S5        30.32S
$$

MSZ040-058-220800-
CENTRAL MISSISSIPPI

CITY           SKY/WX    TMP DP  RH WIND       PRES   REMARKS
JACKSON INTL   PTCLDY    50  45  83 SE5       30.28F
JACKSON HAWKNS PTCLDY    52  44  74 E3        30.28F
MERIDIAN KEY   CLEAR     42  40  92 CALM      30.32R
MERIDIAN NAS   CLEAR     43  41  93 NW5       30.33R
RAYMOND        FAIR      50  45  81 MISG      30.28S
VICKSBURG      MOCLDY    55  46  71 S6        30.27F
$$

MSZ059>079-220800-
SOUTH MISSISSIPPI

CITY           SKY/WX    TMP DP  RH WIND       PRES   REMARKS
BROOKHAVEN     PTSUNNY   54  46  76 CALM      30.28F
HATTIESBURG    CLEAR     42  40  92 CALM      30.31S
MCCOMB         CLEAR     51  45  79 E3        30.26F
NATCHEZ        CLOUDY    55  48  76 SE3       30.27F
PINE BELT      CLEAR     43  39  87 CALM      30.30F
$$

MSZ080>082-220800-
COASTAL MISSISSIPPI

CITY           SKY/WX    TMP DP  RH WIND       PRES   REMARKS
BILOXI         NOT AVBL
PASCAGOULA     CLEAR     51  46  83 E5        30.26F
GULFPORT       CLEAR     47  45  93 N3        30.26F
$$



USA.gov is the U.S. government's official web portal to all federal, state and local government web resources and services.